Location: Roswell
(33.3943°N, 104.5230°W)
Time: 14:46:35
(UTC+00:00)

Hubble Space Telescope - Visible Passes

Search period start: 07 October 2024 00:00
Search period end: 17 October 2024 00:00
Orbit: 504 x 508 km, 28.5° (Epoch: 06 October)

Date Brightness Start Highest point End Pass type
(mag) Time Alt. Az. Time Alt. Az. Time Alt. Az.
07 Oct 3.4 10:46:50 12° SE 10:46:50 12° SE 10:47:13 10° SE visible
15 Oct 3.1 01:12:02 10° SSE 01:12:25 10° SSE 01:12:48 10° SSE visible
16 Oct 3.0 00:49:32 10° S 00:50:49 11° SSE 00:52:07 10° SE visible
16 Oct 2.9 02:27:18 10° SW 02:28:41 18° SSW 02:28:41 18° SSW visible
